WZZ4AG LBSF-LFMN

Flight info

Callsign WZZ4AG
Flight time 2h 6m
Altitude 36000
Route OGOTA L615 OBLAK DCT VELUG/N0449F350 DCT ELB/N0444F340 DCT TOBGA/N0437F300 DCT DOBIM DCT AKUTI R16 KERIT
Aircraft A321/M-SDE1E2E3FGIJ1J4RWXY/LB1

Departure

Time 2026-05-05 17:23
Airport Sofia Airport (LBSF)

Arrival

Time 2026-05-05 19:29
Airport Nice-Côte d'Azur Airport (LFMN)
Time Latitude Longitude Altitude Speed Heading
2026-05-05 16:45 42.69047 23.40490 1753 ft 0 kts 196°
2026-05-05 17:18 42.69046 23.40490 1753 ft 1 kts 196°
2026-05-05 17:19 42.69037 23.40486 1753 ft 2 kts 196°
2026-05-05 17:19 42.69015 23.40472 1750 ft 5 kts 215°
2026-05-05 17:19 42.69011 23.40424 1753 ft 7 kts 281°
2026-05-05 17:19 42.69027 23.40350 1748 ft 10 kts 287°
2026-05-05 17:20 42.69050 23.40246 1745 ft 12 kts 287°
2026-05-05 17:20 42.69076 23.40131 1744 ft 14 kts 287°
2026-05-05 17:20 42.69101 23.39992 1753 ft 17 kts 276°
2026-05-05 17:20 42.69129 23.39828 1752 ft 18 kts 285°
2026-05-05 17:21 42.69160 23.39666 1746 ft 19 kts 285°
2026-05-05 17:21 42.69212 23.39557 1753 ft 15 kts 348°
2026-05-05 17:21 42.69322 23.39563 1746 ft 17 kts
2026-05-05 17:22 42.69583 23.39587 1743 ft 20 kts
2026-05-05 17:22 42.69687 23.39592 1753 ft 11 kts
2026-05-05 17:22 42.69764 23.39645 1745 ft 15 kts 64°
2026-05-05 17:22 42.69759 23.39884 1754 ft 51 kts 94°
2026-05-05 17:23 42.69712 23.40674 1751 ft 115 kts 94°
2026-05-05 17:23 42.69637 23.41997 1748 ft 163 kts 94°
2026-05-05 17:23 42.69551 23.43587 2228 ft 170 kts 94°
2026-05-05 17:23 42.69443 23.45192 2906 ft 171 kts 95°
2026-05-05 17:24 42.69340 23.46803 3547 ft 173 kts 92°
2026-05-05 17:24 42.69641 23.48434 3808 ft 191 kts 58°
2026-05-05 17:24 42.70763 23.49530 3944 ft 215 kts 16°
2026-05-05 17:24 42.72304 23.49441 4102 ft 232 kts 351°
2026-05-05 17:25 42.73965 23.48932 4205 ft 258 kts 347°
2026-05-05 17:25 42.75147 23.48516 4490 ft 268 kts 347°
2026-05-05 17:25 42.77593 23.47620 5430 ft 275 kts 347°
2026-05-05 17:25 42.79456 23.46944 6186 ft 278 kts 346°
2026-05-05 17:26 42.81334 23.46281 6944 ft 280 kts 346°
2026-05-05 17:26 42.83224 23.45626 7702 ft 281 kts 346°
2026-05-05 17:26 42.85122 23.44976 8487 ft 281 kts 346°
2026-05-05 17:26 42.87026 23.44330 9262 ft 282 kts 346°
2026-05-05 17:27 42.88934 23.43690 10076 ft 283 kts 346°
2026-05-05 17:27 42.90904 23.43024 10357 ft 303 kts 344°
2026-05-05 17:27 42.92853 23.41727 10482 ft 325 kts 321°
2026-05-05 17:27 42.94490 23.39511 10841 ft 337 kts 314°
2026-05-05 17:28 42.96108 23.37168 11458 ft 341 kts 313°
2026-05-05 17:28 42.97737 23.34803 12130 ft 344 kts 314°
2026-05-05 17:28 42.99387 23.32410 12733 ft 348 kts 314°
2026-05-05 17:28 43.01060 23.29987 13348 ft 353 kts 314°
2026-05-05 17:29 43.02757 23.27530 13950 ft 357 kts 315°
2026-05-05 17:29 43.04468 23.25050 14535 ft 360 kts 315°
2026-05-05 17:29 43.06185 23.22554 15184 ft 361 kts 315°
2026-05-05 17:29 43.07911 23.20042 15802 ft 363 kts 315°
2026-05-05 17:30 43.09647 23.17515 16419 ft 366 kts 315°
2026-05-05 17:30 43.11393 23.14975 17019 ft 368 kts 315°
2026-05-05 17:30 43.13156 23.12414 17601 ft 371 kts 315°
2026-05-05 17:30 43.14925 23.09833 18197 ft 373 kts 314°
2026-05-05 17:31 43.16704 23.07233 18725 ft 376 kts 315°
2026-05-05 17:31 43.18474 23.04647 19243 ft 378 kts 315°
2026-05-05 17:31 43.20275 23.02013 19782 ft 380 kts 314°
2026-05-05 17:31 43.22084 22.99368 20319 ft 382 kts 315°
2026-05-05 17:32 43.23909 22.96701 20882 ft 384 kts 315°
2026-05-05 17:32 43.25745 22.94019 21414 ft 386 kts 315°
2026-05-05 17:32 43.27586 22.91325 21935 ft 388 kts 315°
2026-05-05 17:32 43.29438 22.88606 22432 ft 391 kts 314°
2026-05-05 17:33 43.31296 22.85866 22908 ft 393 kts 314°
2026-05-05 17:33 43.33161 22.83111 23378 ft 395 kts 314°
2026-05-05 17:33 43.35041 22.80336 23801 ft 397 kts 314°
2026-05-05 17:33 43.36803 22.77405 24188 ft 401 kts 306°
2026-05-05 17:34 43.38183 22.74062 24556 ft 405 kts 296°
2026-05-05 17:34 43.39219 22.70450 24900 ft 407 kts 293°
2026-05-05 17:34 43.40232 22.66803 25285 ft 409 kts 293°
2026-05-05 17:34 43.41249 22.63147 25686 ft 410 kts 293°
2026-05-05 17:35 43.42271 22.59483 26093 ft 411 kts 293°
2026-05-05 17:35 43.43297 22.55809 26488 ft 412 kts 292°
2026-05-05 17:35 43.44326 22.52123 26848 ft 414 kts 292°
2026-05-05 17:35 43.45359 22.48418 27212 ft 415 kts 292°
2026-05-05 17:36 43.46393 22.44697 27578 ft 417 kts 292°
2026-05-05 17:36 43.47424 22.40956 27928 ft 419 kts 291°
2026-05-05 17:36 43.48185 22.37067 28267 ft 423 kts 282°
2026-05-05 17:36 43.48458 22.33014 28604 ft 428 kts 272°
2026-05-05 17:37 43.48296 22.28911 28923 ft 431 kts 269°
2026-05-05 17:37 43.48146 22.26176 29163 ft 432 kts 269°
2026-05-05 17:37 43.47850 22.20727 29737 ft 431 kts 269°
2026-05-05 17:37 43.47626 22.16612 30093 ft 432 kts 269°
2026-05-05 17:38 43.47402 22.12480 30390 ft 434 kts 269°
2026-05-05 17:38 43.47175 22.08330 30661 ft 435 kts 269°
2026-05-05 17:38 43.46943 22.04184 31047 ft 434 kts 269°
2026-05-05 17:38 43.46707 22.00052 31441 ft 433 kts 269°
2026-05-05 17:39 43.46470 21.95926 31816 ft 432 kts 269°
2026-05-05 17:39 43.46235 21.91814 32199 ft 431 kts 269°
2026-05-05 17:39 43.46003 21.87708 32565 ft 430 kts 269°
2026-05-05 17:39 43.45773 21.83615 32924 ft 429 kts 269°
2026-05-05 17:40 43.45541 21.79527 33273 ft 428 kts 269°
2026-05-05 17:40 43.45307 21.75447 33655 ft 426 kts 269°
2026-05-05 17:40 43.45069 21.71390 34048 ft 424 kts 269°
2026-05-05 17:40 43.44830 21.67352 34356 ft 423 kts 269°
2026-05-05 17:41 43.44591 21.63314 34629 ft 423 kts 269°
2026-05-05 17:41 43.44351 21.59281 34896 ft 423 kts 269°
2026-05-05 17:41 43.44109 21.55244 35161 ft 423 kts 269°
2026-05-05 17:41 43.43867 21.51209 35423 ft 423 kts 268°
2026-05-05 17:42 43.43622 21.47175 35670 ft 423 kts 268°
2026-05-05 17:42 43.43377 21.43150 35906 ft 423 kts 268°
2026-05-05 17:42 43.43131 21.39128 35966 ft 421 kts 268°
2026-05-05 17:43 43.42635 21.31106 35973 ft 420 kts 268°
2026-05-05 17:43 43.42137 21.23109 35974 ft 420 kts 268°
2026-05-05 17:44 43.41717 21.16460 35974 ft 420 kts 268°
2026-05-05 17:44 43.41204 21.08466 35977 ft 419 kts 268°
2026-05-05 17:45 43.40604 20.99183 35984 ft 419 kts 268°
2026-05-05 17:45 43.40083 20.91198 35996 ft 419 kts 268°
2026-05-05 17:46 43.39649 20.84562 35998 ft 419 kts 267°
2026-05-05 17:46 43.39115 20.76580 35998 ft 419 kts 267°
2026-05-05 17:47 43.38582 20.68602 36006 ft 419 kts 267°
2026-05-05 17:47 43.38044 20.60625 36007 ft 419 kts 267°
2026-05-05 17:48 43.37495 20.52649 36006 ft 419 kts 267°
2026-05-05 17:48 43.36938 20.44672 36009 ft 419 kts 267°
2026-05-05 17:49 43.36373 20.36694 36019 ft 419 kts 267°
2026-05-05 17:49 43.35805 20.28721 36023 ft 419 kts 267°
2026-05-05 17:50 43.35240 20.20755 36030 ft 419 kts 267°
2026-05-05 17:50 43.34669 20.12811 36051 ft 417 kts 266°
2026-05-05 17:51 43.34089 20.04897 36046 ft 415 kts 266°
2026-05-05 17:51 43.33506 19.97011 36047 ft 415 kts 266°
2026-05-05 17:52 43.32925 19.89137 36047 ft 414 kts 266°
2026-05-05 17:52 43.32336 19.81270 36051 ft 414 kts 266°
2026-05-05 17:53 43.31740 19.73411 36056 ft 413 kts 266°
2026-05-05 17:53 43.31138 19.65573 36057 ft 412 kts 266°
2026-05-05 17:54 43.30541 19.57740 36063 ft 413 kts 266°
2026-05-05 17:54 43.29932 19.49911 36064 ft 413 kts 266°
2026-05-05 17:55 43.29312 19.42084 36070 ft 412 kts 266°
2026-05-05 17:55 43.28682 19.34288 36080 ft 410 kts 266°
2026-05-05 17:56 43.28057 19.26522 36082 ft 409 kts 266°
2026-05-05 17:56 43.27442 19.18765 36083 ft 408 kts 266°
2026-05-05 17:57 43.26819 19.11027 36081 ft 408 kts 266°
2026-05-05 17:57 43.26186 19.03346 36091 ft 408 kts 266°
2026-05-05 17:58 43.25548 18.95629 36093 ft 407 kts 266°
2026-05-05 17:58 43.24904 18.87917 36093 ft 407 kts 266°
2026-05-05 17:59 43.24259 18.80208 36100 ft 407 kts 266°
2026-05-05 17:59 43.23608 18.72507 36092 ft 407 kts 265°
2026-05-05 18:00 43.22945 18.64802 36106 ft 407 kts 265°
2026-05-05 18:00 43.22278 18.57100 36117 ft 407 kts 265°
2026-05-05 18:01 43.21607 18.49408 36118 ft 406 kts 265°
2026-05-05 18:01 43.20931 18.41712 36107 ft 406 kts 265°
2026-05-05 18:02 43.20254 18.34021 36102 ft 407 kts 265°
2026-05-05 18:02 43.19576 18.26308 36100 ft 408 kts 265°
2026-05-05 18:03 43.18890 18.18596 36100 ft 408 kts 265°
2026-05-05 18:03 43.18195 18.10880 36104 ft 408 kts 265°
2026-05-05 18:04 43.17491 18.03162 36097 ft 408 kts 265°
2026-05-05 18:04 43.16782 17.95445 36091 ft 408 kts 265°
2026-05-05 18:05 43.16065 17.87731 36101 ft 408 kts 265°
2026-05-05 18:05 43.15352 17.80014 36104 ft 409 kts 265°
2026-05-05 18:06 43.14635 17.72350 36107 ft 409 kts 264°
2026-05-05 18:06 43.13903 17.64628 36104 ft 409 kts 264°
2026-05-05 18:07 43.13164 17.56906 36101 ft 409 kts 264°
2026-05-05 18:07 43.12423 17.49182 36097 ft 409 kts 264°
2026-05-05 18:08 43.11678 17.41461 36094 ft 409 kts 264°
2026-05-05 18:08 43.10934 17.33739 36100 ft 409 kts 264°
2026-05-05 18:09 43.10178 17.26020 36083 ft 409 kts 264°
2026-05-05 18:09 43.09413 17.18306 36092 ft 409 kts 264°
2026-05-05 18:10 43.08649 17.10612 36089 ft 408 kts 264°
2026-05-05 18:10 43.07880 17.02921 36083 ft 408 kts 264°
2026-05-05 18:11 43.07103 16.95250 36087 ft 407 kts 264°
2026-05-05 18:11 43.06327 16.87595 36088 ft 406 kts 264°
2026-05-05 18:12 43.05549 16.79957 36083 ft 405 kts 264°
2026-05-05 18:12 43.04769 16.72324 36081 ft 405 kts 264°
2026-05-05 18:13 43.03984 16.64698 36085 ft 405 kts 264°
2026-05-05 18:13 43.03190 16.57083 36081 ft 404 kts 264°
2026-05-05 18:14 43.02395 16.49486 36078 ft 404 kts 264°
2026-05-05 18:14 43.01588 16.41900 36068 ft 403 kts 264°
2026-05-05 18:15 43.00779 16.34314 36069 ft 403 kts 264°
2026-05-05 18:15 42.99970 16.26755 36073 ft 402 kts 264°
2026-05-05 18:16 42.99158 16.19206 36069 ft 401 kts 264°
2026-05-05 18:16 42.98350 16.11725 36065 ft 401 kts 264°
2026-05-05 18:17 42.97530 16.04206 36061 ft 400 kts 264°
2026-05-05 18:17 42.96709 15.96691 36065 ft 400 kts 264°
2026-05-05 18:18 42.95876 15.89202 36064 ft 399 kts 264°
2026-05-05 18:18 42.95047 15.81724 36060 ft 398 kts 264°
2026-05-05 18:19 42.94212 15.74259 36055 ft 398 kts 264°
2026-05-05 18:19 42.93371 15.66791 36038 ft 398 kts 264°
2026-05-05 18:20 42.92526 15.59331 36051 ft 397 kts 263°
2026-05-05 18:20 42.91684 15.51894 36051 ft 396 kts 263°
2026-05-05 18:21 42.90843 15.44472 36050 ft 395 kts 266°
2026-05-05 18:21 42.90663 15.37020 36048 ft 393 kts 270°
2026-05-05 18:22 42.90563 15.29568 36046 ft 393 kts 270°
2026-05-05 18:22 42.90457 15.22166 36050 ft 393 kts 270°
2026-05-05 18:23 42.90338 15.14717 36047 ft 393 kts 270°
2026-05-05 18:23 42.90214 15.07223 36044 ft 393 kts 270°
2026-05-05 18:24 42.90094 14.99833 36042 ft 392 kts 270°
2026-05-05 18:24 42.89968 14.92396 36049 ft 392 kts 270°
2026-05-05 18:25 42.89829 14.84961 36047 ft 392 kts 269°
2026-05-05 18:25 42.89690 14.77540 36046 ft 392 kts 269°
2026-05-05 18:26 42.89556 14.70117 36045 ft 391 kts 269°
2026-05-05 18:26 42.89411 14.62708 36042 ft 391 kts 269°
2026-05-05 18:27 42.89258 14.55298 36020 ft 391 kts 269°
2026-05-05 18:27 42.89103 14.47886 36025 ft 391 kts 269°
2026-05-05 18:28 42.88854 14.36765 36032 ft 392 kts 269°
2026-05-05 18:28 42.88684 14.29341 36037 ft 392 kts 269°
2026-05-05 18:29 42.88522 14.21921 36039 ft 392 kts 269°
2026-05-05 18:29 42.88345 14.14500 36051 ft 391 kts 269°
2026-05-05 18:30 42.88158 14.07094 36049 ft 391 kts 268°
2026-05-05 18:30 42.87966 13.99690 36048 ft 391 kts 268°
2026-05-05 18:31 42.87772 13.92292 36048 ft 390 kts 269°
2026-05-05 18:31 42.87584 13.84903 36052 ft 390 kts 268°
2026-05-05 18:32 42.87383 13.77514 36046 ft 390 kts 268°
2026-05-05 18:32 42.87175 13.70181 36044 ft 390 kts 268°
2026-05-05 18:33 42.86961 13.62801 36047 ft 390 kts 268°
2026-05-05 18:33 42.86746 13.55421 36045 ft 389 kts 268°
2026-05-05 18:34 42.86561 13.49246 36063 ft 389 kts 268°
2026-05-05 18:34 42.86339 13.41870 36058 ft 389 kts 267°
2026-05-05 18:35 42.86114 13.34504 36057 ft 389 kts 267°
2026-05-05 18:35 42.85882 13.27143 36052 ft 389 kts 267°
2026-05-05 18:36 42.85646 13.19770 36026 ft 389 kts 267°
2026-05-05 18:36 42.85406 13.12404 36060 ft 389 kts 267°
2026-05-05 18:37 42.85158 13.05049 36060 ft 388 kts 266°
2026-05-05 18:37 42.84905 12.97710 36063 ft 388 kts 266°
2026-05-05 18:38 42.84650 12.90420 36059 ft 388 kts 266°
2026-05-05 18:38 42.84390 12.83081 36060 ft 388 kts 266°
2026-05-05 18:39 42.84124 12.75747 36071 ft 387 kts 266°
2026-05-05 18:39 42.83856 12.68429 36067 ft 386 kts 266°
2026-05-05 18:40 42.83589 12.61119 36053 ft 386 kts 266°
2026-05-05 18:40 42.83313 12.53806 36059 ft 387 kts 266°
2026-05-05 18:41 42.83030 12.46491 36057 ft 386 kts 266°
2026-05-05 18:41 42.82735 12.39184 36078 ft 386 kts 265°
2026-05-05 18:42 42.82439 12.31880 36073 ft 386 kts 265°
2026-05-05 18:42 42.82142 12.24585 36062 ft 386 kts 265°
2026-05-05 18:43 42.81844 12.17288 36058 ft 386 kts 265°
2026-05-05 18:43 42.81541 12.10002 36052 ft 385 kts 265°
2026-05-05 18:44 42.81227 12.02713 36070 ft 385 kts 265°
2026-05-05 18:44 42.80913 11.95429 36067 ft 385 kts 265°
2026-05-05 18:45 42.80600 11.88156 36056 ft 385 kts 265°
2026-05-05 18:45 42.80272 11.80895 36058 ft 384 kts 264°
2026-05-05 18:46 42.79938 11.73634 36053 ft 384 kts 264°
2026-05-05 18:46 42.79610 11.66431 36069 ft 384 kts 264°
2026-05-05 18:47 42.79281 11.59179 36058 ft 383 kts 264°
2026-05-05 18:47 42.78941 11.51939 36055 ft 383 kts 264°
2026-05-05 18:48 42.78600 11.44711 36046 ft 382 kts 264°
2026-05-05 18:48 42.78251 11.37495 36049 ft 382 kts 264°
2026-05-05 18:49 42.77901 11.30283 36043 ft 382 kts 264°
2026-05-05 18:49 42.77545 11.23073 36026 ft 382 kts 264°
2026-05-05 18:50 42.77183 11.15866 36020 ft 382 kts 263°
2026-05-05 18:50 42.76813 11.08654 36017 ft 382 kts 263°
2026-05-05 18:51 42.76444 11.01453 36015 ft 382 kts 263°
2026-05-05 18:51 42.76072 10.94250 36015 ft 382 kts 263°
2026-05-05 18:52 42.75695 10.87053 36013 ft 382 kts 263°
2026-05-05 18:52 42.75308 10.79849 36012 ft 382 kts 263°
2026-05-05 18:53 42.74920 10.72644 36016 ft 382 kts 263°
2026-05-05 18:53 42.74524 10.65442 36010 ft 382 kts 263°
2026-05-05 18:54 42.74125 10.58288 36008 ft 382 kts 263°
2026-05-05 18:54 42.73722 10.51075 35990 ft 383 kts 263°
2026-05-05 18:55 42.73326 10.43853 35995 ft 383 kts 265°
2026-05-05 18:55 42.74021 10.36628 35982 ft 393 kts 283°
2026-05-05 18:56 42.76096 10.29684 35987 ft 397 kts 287°
2026-05-05 18:56 42.78213 10.22736 36001 ft 398 kts 287°
2026-05-05 18:57 42.80328 10.15773 36007 ft 397 kts 286°
2026-05-05 18:57 42.82431 10.08821 36004 ft 397 kts 286°
2026-05-05 18:58 42.83484 10.05330 35892 ft 398 kts 286°
2026-05-05 18:58 42.84533 10.01851 35634 ft 397 kts 286°
2026-05-05 18:58 42.85580 9.98370 35383 ft 397 kts 286°
2026-05-05 18:58 42.86622 9.94887 35129 ft 397 kts 285°
2026-05-05 18:59 42.87666 9.91394 34885 ft 397 kts 285°
2026-05-05 18:59 42.88742 9.87921 34637 ft 399 kts 289°
2026-05-05 18:59 42.90168 9.84651 34337 ft 405 kts 298°
2026-05-05 18:59 42.91838 9.81558 33821 ft 404 kts 298°
2026-05-05 19:00 42.93504 9.78487 33302 ft 402 kts 298°
2026-05-05 19:00 42.95121 9.75409 32819 ft 394 kts 294°
2026-05-05 19:00 42.96383 9.72161 32351 ft 383 kts 288°
2026-05-05 19:00 42.97502 9.68877 31904 ft 379 kts 288°
2026-05-05 19:01 42.98611 9.65629 31453 ft 376 kts 288°
2026-05-05 19:01 42.99712 9.62411 31004 ft 373 kts 288°
2026-05-05 19:01 43.00802 9.59217 30565 ft 370 kts 288°
2026-05-05 19:01 43.01881 9.56037 30130 ft 367 kts 288°
2026-05-05 19:02 43.02949 9.52884 29653 ft 364 kts 288°
2026-05-05 19:02 43.04007 9.49760 29250 ft 361 kts 288°
2026-05-05 19:02 43.05062 9.46656 28807 ft 358 kts 288°
2026-05-05 19:02 43.06106 9.43585 28412 ft 355 kts 288°
2026-05-05 19:03 43.07142 9.40527 28004 ft 353 kts 288°
2026-05-05 19:03 43.08167 9.37493 27612 ft 350 kts 288°
2026-05-05 19:03 43.09169 9.34527 27237 ft 347 kts 288°
2026-05-05 19:03 43.10173 9.31546 26867 ft 344 kts 288°
2026-05-05 19:04 43.11169 9.28589 26491 ft 340 kts 288°
2026-05-05 19:04 43.12155 9.25666 26127 ft 337 kts 288°
2026-05-05 19:04 43.13131 9.22762 25768 ft 335 kts 288°
2026-05-05 19:04 43.14113 9.19834 25402 ft 334 kts 288°
2026-05-05 19:05 43.15068 9.16987 25050 ft 333 kts 288°
2026-05-05 19:05 43.16032 9.14106 24686 ft 332 kts 288°
2026-05-05 19:05 43.17007 9.11195 24315 ft 332 kts 288°
2026-05-05 19:05 43.17955 9.08366 23967 ft 331 kts 288°
2026-05-05 19:06 43.18917 9.05493 23573 ft 331 kts 288°
2026-05-05 19:06 43.19875 9.02628 23148 ft 331 kts 288°
2026-05-05 19:06 43.20829 8.99761 22764 ft 330 kts 288°
2026-05-05 19:06 43.21772 8.96910 22357 ft 328 kts 288°
2026-05-05 19:07 43.22711 8.94076 21964 ft 326 kts 288°
2026-05-05 19:07 43.23649 8.91258 21563 ft 324 kts 288°
2026-05-05 19:07 43.24585 8.88453 21152 ft 322 kts 288°
2026-05-05 19:07 43.25513 8.85664 20766 ft 321 kts 288°
2026-05-05 19:08 43.26435 8.82888 20361 ft 319 kts 288°
2026-05-05 19:08 43.27352 8.80124 19971 ft 317 kts 288°
2026-05-05 19:08 43.28263 8.77378 19570 ft 316 kts 288°
2026-05-05 19:08 43.29171 8.74638 19176 ft 315 kts 288°
2026-05-05 19:09 43.30075 8.71908 18805 ft 313 kts 288°
2026-05-05 19:09 43.30972 8.69182 18404 ft 313 kts 287°
2026-05-05 19:09 43.31867 8.66462 17975 ft 312 kts 288°
2026-05-05 19:09 43.32758 8.63755 17558 ft 310 kts 288°
2026-05-05 19:10 43.33557 8.61036 17173 ft 302 kts 280°
2026-05-05 19:10 43.33946 8.58252 16823 ft 292 kts 269°
2026-05-05 19:10 43.33916 8.55467 16694 ft 298 kts 259°
2026-05-05 19:10 43.33663 8.52603 16511 ft 304 kts 259°
2026-05-05 19:11 43.33416 8.49708 16328 ft 305 kts 259°
2026-05-05 19:11 43.33178 8.46812 16143 ft 305 kts 259°
2026-05-05 19:11 43.32942 8.43923 15952 ft 304 kts 259°
2026-05-05 19:11 43.32706 8.41039 15768 ft 304 kts 259°
2026-05-05 19:12 43.32470 8.38157 15568 ft 303 kts 259°
2026-05-05 19:12 43.32231 8.35289 15390 ft 303 kts 259°
2026-05-05 19:12 43.31987 8.32411 15210 ft 303 kts 259°
2026-05-05 19:12 43.31742 8.29541 15022 ft 302 kts 259°
2026-05-05 19:13 43.31498 8.26676 14836 ft 302 kts 259°
2026-05-05 19:13 43.31254 8.23821 14649 ft 301 kts 259°
2026-05-05 19:13 43.31010 8.20973 14467 ft 300 kts 259°
2026-05-05 19:13 43.30766 8.18133 14277 ft 299 kts 259°
2026-05-05 19:14 43.30520 8.15296 14092 ft 299 kts 259°
2026-05-05 19:14 43.30346 8.12460 13907 ft 300 kts 267°
2026-05-05 19:14 43.30627 8.09644 13725 ft 305 kts 281°
2026-05-05 19:14 43.31445 8.06935 13515 ft 311 kts 294°
2026-05-05 19:15 43.32525 8.04359 13329 ft 311 kts 294°
2026-05-05 19:15 43.33600 8.01783 13126 ft 310 kts 294°
2026-05-05 19:15 43.34668 7.99206 12946 ft 310 kts 294°
2026-05-05 19:15 43.35727 7.96638 12770 ft 308 kts 294°
2026-05-05 19:16 43.36781 7.94079 12577 ft 306 kts 295°
2026-05-05 19:16 43.37829 7.91538 12381 ft 306 kts 295°
2026-05-05 19:16 43.38876 7.89001 12198 ft 305 kts 295°
2026-05-05 19:16 43.39921 7.86465 11994 ft 304 kts 295°
2026-05-05 19:17 43.40964 7.83940 11819 ft 304 kts 295°
2026-05-05 19:17 43.42004 7.81418 11631 ft 303 kts 295°
2026-05-05 19:17 43.42846 7.78801 11451 ft 296 kts 278°
2026-05-05 19:17 43.42860 7.76035 11246 ft 289 kts 257°
2026-05-05 19:18 43.42410 7.73351 10997 ft 288 kts 253°
2026-05-05 19:18 43.41906 7.70689 10753 ft 287 kts 253°
2026-05-05 19:18 43.41394 7.68035 10510 ft 287 kts 253°
2026-05-05 19:18 43.40879 7.65392 10262 ft 283 kts 253°
2026-05-05 19:19 43.40373 7.62807 10020 ft 277 kts 253°
2026-05-05 19:19 43.39874 7.60269 9695 ft 274 kts 253°
2026-05-05 19:19 43.39377 7.57758 9370 ft 271 kts 253°
2026-05-05 19:19 43.38882 7.55258 9023 ft 270 kts 253°
2026-05-05 19:20 43.38390 7.52768 8677 ft 270 kts 253°
2026-05-05 19:20 43.37901 7.50274 8339 ft 271 kts 253°
2026-05-05 19:20 43.37413 7.47764 8060 ft 272 kts 253°
2026-05-05 19:20 43.36925 7.45252 7808 ft 272 kts 253°
2026-05-05 19:21 43.36599 7.43583 7651 ft 272 kts 253°
2026-05-05 19:21 43.36108 7.41072 7399 ft 272 kts 253°
2026-05-05 19:21 43.35618 7.38568 7142 ft 272 kts 253°
2026-05-05 19:21 43.35126 7.36063 7004 ft 272 kts 253°
2026-05-05 19:22 43.34633 7.33556 6994 ft 272 kts 253°
2026-05-05 19:22 43.34139 7.31043 6996 ft 273 kts 253°
2026-05-05 19:22 43.33644 7.28526 6997 ft 273 kts 253°
2026-05-05 19:22 43.33153 7.26007 6996 ft 273 kts 255°
2026-05-05 19:23 43.33031 7.23405 6717 ft 277 kts 277°
2026-05-05 19:23 43.33717 7.20934 6198 ft 283 kts 303°
2026-05-05 19:23 43.35141 7.19106 5557 ft 279 kts 330°
2026-05-05 19:23 43.36929 7.18280 5074 ft 267 kts 351°
2026-05-05 19:24 43.38730 7.17915 4614 ft 257 kts 351°
2026-05-05 19:24 43.40472 7.17558 4130 ft 249 kts 351°
2026-05-05 19:24 43.42158 7.17208 3652 ft 241 kts 351°
2026-05-05 19:24 43.43766 7.16873 3484 ft 232 kts 351°
2026-05-05 19:25 43.45369 7.16537 3357 ft 233 kts 351°
2026-05-05 19:25 43.46975 7.16234 3233 ft 233 kts 353°
2026-05-05 19:25 43.48589 7.16048 3129 ft 232 kts 355°
2026-05-05 19:25 43.50191 7.15905 3022 ft 230 kts 356°
2026-05-05 19:26 43.51787 7.15761 3005 ft 230 kts 355°
2026-05-05 19:26 43.53384 7.15603 3006 ft 230 kts 355°
2026-05-05 19:26 43.54983 7.15445 2981 ft 229 kts 356°
2026-05-05 19:26 43.56524 7.15329 2860 ft 216 kts 355°
2026-05-05 19:27 43.57949 7.15177 2594 ft 195 kts 355°
2026-05-05 19:27 43.59212 7.15074 2363 ft 169 kts 357°
2026-05-05 19:27 43.60340 7.14980 1883 ft 161 kts 357°
2026-05-05 19:27 43.61424 7.15209 1383 ft 153 kts 30°
2026-05-05 19:28 43.62152 7.16172 1010 ft 142 kts 48°
2026-05-05 19:28 43.62862 7.17097 657 ft 139 kts 47°
2026-05-05 19:28 43.63511 7.18073 387 ft 137 kts 52°
2026-05-05 19:28 43.64167 7.19009 301 ft 136 kts 45°
2026-05-05 19:29 43.64846 7.19928 224 ft 137 kts 47°
2026-05-05 19:29 43.65514 7.20862 32 ft 136 kts 47°
2026-05-05 19:29 43.66099 7.21671 20 ft 100 kts 45°
2026-05-05 19:29 43.66400 7.22071 22 ft 37 kts 44°
2026-05-05 19:30 43.66526 7.22066 22 ft 17 kts 315°
2026-05-05 19:30 43.66541 7.22043 21 ft 0 kts 313°
2026-05-05 19:31 43.66542 7.22042 21 ft 1 kts 312°
2026-05-05 19:31 43.66548 7.22026 23 ft 3 kts 296°
2026-05-05 19:31 43.66550 7.21983 21 ft 7 kts 257°
2026-05-05 19:32 43.66506 7.21905 21 ft 14 kts 225°
2026-05-05 19:32 43.66421 7.21788 21 ft 19 kts 225°
2026-05-05 19:32 43.66323 7.21652 21 ft 20 kts 224°
2026-05-05 19:32 43.66225 7.21518 21 ft 21 kts 224°
2026-05-05 19:33 43.66118 7.21371 21 ft 22 kts 226°
2026-05-05 19:33 43.66010 7.21227 22 ft 21 kts 224°
2026-05-05 19:33 43.65924 7.21108 22 ft 16 kts 221°
2026-05-05 19:33 43.65844 7.20996 21 ft 17 kts 224°
2026-05-05 19:34 43.65804 7.20889 21 ft 12 kts 292°
2026-05-05 19:34 43.65884 7.20846 21 ft 14 kts 351°
2026-05-05 19:34 43.65983 7.20823 21 ft 15 kts 349°
2026-05-05 19:35 43.66127 7.20741 21 ft 9 kts 259°
2026-05-05 19:35 43.66120 7.20692 21 ft 0 kts 261°